Regional Weather Roundup
Issued by NWS

Home | Current Version | Previous Version | Text Only | Print | Product List | Glossary Off
Versions: 1 2 3 4 5 6 7 8 9 10 11 12 13 14 15 16 17 18 19 20 21 22 23 24 25 26 27 28 29 30 31 32 33 34 35 36 37 38 39 40 41 42 43 44 45 46 47 48 49 50

000
ASUS43 KBIS 011410
RWRND

NORTH DAKOTA REGIONAL WEATHER ROUNDUP
NATIONAL WEATHER SERVICE BISMARCK ND
900 AM CDT WED APR 01 2015

NOTE: "FAIR" INDICATES FEW OR NO CLOUDS BELOW 12,000 FEET WITH NO
SIGNIFICANT WEATHER AND/OR OBSTRUCTIONS TO VISIBILITY.


NDZ001>003-009>011-017-011500-
NORTHWEST NORTH DAKOTA

CITY           SKY/WX    TMP DP  RH WIND       PRES   REMARKS
WILLISTON      MOSUNNY   47  38  71 W13G21    29.56R
MINOT          MOSUNNY   46  35  65 NW26G35   29.41R
MINOT AFB      MOSUNNY   43  40  88 NW23G35   29.40R
$$

NDZ018>021-031>035-040>046-011500-
SOUTHWEST NORTH DAKOTA

CITY           SKY/WX    TMP DP  RH WIND       PRES   REMARKS
BISMARCK       PTSUNNY   52  38  58 NW21G31   29.44R
DICKINSON      MOSUNNY   50  37  61 NW24G31   29.53R
GARRISON         N/A     49  40  71 NW24G32   29.43R
HETTINGER ARPT MOSUNNY   51  37  58 NW23G35   29.56R
$$

NDZ004>008-012>016-024-026-027-054-011500-
NORTHEAST NORTH DAKOTA

CITY           SKY/WX    TMP DP  RH WIND       PRES   REMARKS
GRAND FORKS    PTSUNNY   49  33  54 SE17      29.41F
GRND FRKS AFB  PTSUNNY   45  31  59 SE10      29.40F
DEVILS LAKE    CLOUDY    45  34  65 S6G32     29.37R
$$

NDZ022-023-025-028>030-036>039-047>053-011500-
SOUTHEAST NORTH DAKOTA

CITY           SKY/WX    TMP DP  RH WIND       PRES   REMARKS
FARGO          SUNNY     55  34  45 SE18G30   29.44F
JAMESTOWN      CLOUDY    50  34  54 S21G26    29.35F
$$



USA.gov is the U.S. government's official web portal to all federal, state and local government web resources and services.